Redding Municipal Airport
KRDD : rendu visible

Aérodrome :











RETROUVEZ-NOUS SUR...

 
LOGIN :

S'inscrire | Disclaimer

   EN    FR    IT 

 









Légende :    VFR   VFR Marginal   IFR   IFR Intensif   IFR Très Intensif
Visi : 
Plafond : 
>= 8 km
>= 3000ft
5 à 8 km
1000 à 3000 ft
1500m à 5 km
500 à 1000 ft
800 à 1500m
200 à 500 ft
< 800m
< 200 ft
Symboles :   Orages  Brouillard  Fortes neiges  Fortes précipitations  Vent > 20 kt






- Altitude de l'aérodrome : 505 ft
- Code IATA : RDD


KRDD - Redding Municipal

DERNIER METAR :
  • 041853Z 35004KT 10SM CLR 33/13 A2977 RMK AO2 SLP072 T03280128

METARs EXPIRÉS :
  • 041753Z 36007KT 10SM CLR 31/13 A2978 RMK AO2 SLP079 T03110128 10311 20194 58011

TAF KRDD
Valide du 04 à 18h jusqu'au 05 à 18h UTC


041726Z 0418/0518 34009KT P6SM SKC
FM042200 18009KT P6SM FEW250
FM050600 32004KT P6SM FEW250
FIR KZOA / Amérique du Nord



MET'MAP, la Météo Aéronautique d'un coup d'oeil ! - Copyright ORBIFLY Décembre 2007 - Disclaimer

ORBIFLY MET'MAP TEAM :

Programmation & Développement : Alexandra Zaïnal
Sur une idée originale de : Baudouin d'Aumeries
Assistance à la programmation : Marc-Olivier Méhu
Soutien technique & logistique : Manuel Goepfert

Contact : metmap@orbifly.com




SOURCES & CREDITS :

   NOAA       Earth
Advisory